Home   Weather   Emmendingen   Past weeks

Flag for Germany Past Weather in Emmendingen, Baden-Württemberg, Germany — Yesterday and Last 2 Weeks

Now
32 °F

Passing clouds.


Feels Like: 26 °F
Forecast: 15 / 28 °F
Wind: 6 mph from East

Location: Lahr - CAN-AFB

Current Time: Jan 18, 2017 at 1:31:35 pm

Latest Report: Jan 18, 2017 at 12:50 pm


Visibility: N/A

Pressure: 30.51 "Hg

Humidity: 51%

Dew Point: 16 °F

Location of EmmendingenLocation

Past Weather in Emmendingen — Graph

°F

Emmendingen Temperature Yesterday

Maximum temperature yesterday: 30 °F (at 12:50 pm)
Minimum temperature yesterday: 21 °F (at 6:20 am)
Average temperature yesterday: 27 °F

High & Low Weather Summary for the Past Weeks

 TemperatureHumidityPressure
High45 °F (Jan 12, 7:50 pm)100% (Jan 3, 12:20 pm)30.60 "Hg (Jan 3, 12:20 pm)
Low16 °F (Jan 7, 7:50 am)51% (Jan 18, 11:50 am)29.56 "Hg (Jan 12, 7:50 pm)
Average33 °F88%30.15 "Hg
* Reported Jan 3 12:20 pm — Jan 18 12:20 pm, Emmendingen, Weather by CustomWeather, © 2017

Note: Actual official high and low records may vary slightly from our data, if they occured in-between our weather recording intervals... More about our weather records

Advertising

Emmendingen Weather History for the Previous 24 Hours

Scroll right to see more
 ConditionsComfort  
Time TempWeatherWind HumidityBarometerVisibility
12:20 pm
Wed, Jan 18
30 °FPassing clouds.6 mph51%30.51 "HgN/A
11:50 am30 °FPassing clouds.9 mph51%30.51 "HgN/A
11:20 am30 °FPassing clouds.8 mph55%30.51 "HgN/A
10:50 am28 °FPassing clouds.12 mph59%30.51 "HgN/A
10:20 am28 °FPassing clouds.12 mph59%30.51 "HgN/A
9:20 am25 °FPassing clouds.7 mph69%30.51 "HgN/A
8:50 am23 °FPassing clouds.9 mph74%30.51 "HgN/A
8:20 am23 °FPassing clouds.7 mph74%30.51 "HgN/A
7:20 pm
Tue, Jan 17
27 °FPassing clouds.12 mph74%30.48 "HgN/A
6:50 pm27 °FPassing clouds.9 mph74%30.48 "HgN/A
6:20 pm28 °FPassing clouds.12 mph69%30.48 "HgN/A
5:50 pm28 °FPassing clouds.13 mph69%30.48 "HgN/A
5:20 pm28 °FPassing clouds.13 mph64%30.45 "HgN/A
4:50 pm30 °FPartly sunny.15 mph59%30.45 "HgN/A
4:20 pm30 °FPartly sunny.13 mph59%30.45 "HgN/A
3:50 pm30 °FPartly sunny.14 mph59%30.45 "HgN/A
3:20 pm30 °FPartly sunny.10 mph59%30.45 "HgN/A
2:50 pm30 °FPartly sunny.14 mph59%30.45 "HgN/A
2:20 pm30 °FPassing clouds.13 mph59%30.45 "HgN/A
1:50 pm30 °FPassing clouds.13 mph59%30.45 "HgN/A
1:20 pm30 °FPassing clouds.14 mph69%30.45 "HgN/A
Weather by CustomWeather, © 2017

See weather overviewHow to use our weather pages